Weather reports worldwide

Advertisment
Magdeburg, Germany (10361): temperature & dewpoint: 14.06.2019 06:00:00 - 20.06.2019 06:00:00 (CEST)Magdeburg, Germany (10361): temperature 5cm & temperature -5cm: 14.06.2019 06:00:00 - 20.06.2019 06:00:00 (CEST)Magdeburg, Germany (10361): temperature -20cm & temperature -100cm: 14.06.2019 06:00:00 - 20.06.2019 06:00:00 (CEST)Magdeburg, Germany (10361): wind speed & gusts: 14.06.2019 06:00:00 - 20.06.2019 06:00:00 (CEST)Magdeburg, Germany (10361): wind direction: 14.06.2019 06:00:00 - 20.06.2019 06:00:00 (CEST)Magdeburg, Germany (10361): reduced air pressure: 14.06.2019 06:00:00 - 20.06.2019 06:00:00 (CEST)Magdeburg, Germany (10361): visibility: 14.06.2019 06:00:00 - 20.06.2019 06:00:00 (CEST)Magdeburg, Germany (10361): sunshine duration: 14.06.2019 06:00:00 - 20.06.2019 06:00:00 (CEST)Magdeburg, Germany (10361): precipitation: 14.06.2019 06:00:00 - 20.06.2019 06:00:00 (CEST)
Date & Time tt [°C] td [°C] tt 5cm [°C] tt -5cm [°C] tt -20cm [°C] tt -100cm [°C] ff [km/h] ff [kn] fx [km/h] fx [kn] dd ppp [hPa] vv [km] sd [min] rr [mm]
20.06.2019 06:00:00 17,3 15,3 16,6 18,4 22,8 17,0 9 5 17 9 SSW 1009,1 25 6 0,0
20.06.2019 05:00:00 16,9 15,2 15,3 18,2 23,3 17,0 3 2 11 6 SSE 1008,5 27 0 0,0
20.06.2019 04:00:00 17,2 15,2 16,0 18,5 23,8 17,0 4 2 31 17 NW 1009,1 29 0 0,0
20.06.2019 03:00:00 17,6 15,4 16,2 19,0 24,4 17,0 8 4 18 10 N 1008,8 30 0 0,0
20.06.2019 02:00:00 18,4 15,5 16,9 19,7 24,9 17,0 9 5 54 29 NNW 1009,2 42 0 0,1
20.06.2019 01:00:00 18,1 15,8 16,5 20,9 25,6 17,0 3 2 11 6 S 1007,9 35 0 0,0
20.06.2019 00:00:00 18,8 16,5 17,3 21,9 26,2 17,0 6 3 17 9 ENE 1008,0 40 0 0,3
19.06.2019 23:00:00 18,9 15,0 17,0 22,6 26,7 17,0 13 7 56 30 N 1008,8 17 0 5,4
19.06.2019 22:00:00 24,2 12,4 22,9 26,1 27,2 17,0 10 5 27 15 NW 1006,9 51 0 0,0
19.06.2019 21:00:00 23,4 13,7 22,0 27,9 27,5 16,9 9 5 22 12 W 1007,5 66 0 0,0
19.06.2019 20:00:00 25,9 12,5 24,8 30,4 27,6 16,9 12 6 29 16 W 1007,2 70 0 0,0
19.06.2019 19:00:00 30,9 11,3 29,3 34,5 27,4 16,9 8 4 18 10 WSW 1006,2 65 57 0,0
19.06.2019 18:00:00 32,2 10,3 35,5 36,8 26,9 16,9 9 5 22 12 SW 1006,4 55 60 0,0
19.06.2019 17:00:00 32,5 11,1 36,1 37,8 26,3 16,9 10 6 34 18 S 1006,8 40 60 0,0
19.06.2019 16:00:00 31,6 10,7 35,3 37,8 25,6 16,9 12 7 27 15 SSW 1007,3 41 60 0,0
19.06.2019 15:00:00 31,3 9,8 35,8 36,8 24,9 16,9 15 8 30 16 SSW 1008,0 43 57 0,0
19.06.2019 14:00:00 29,9 13,4 32,4 35,3 24,1 16,9 10 6 26 14 S 1008,3 62 41 0,0
19.06.2019 13:00:00 30,0 13,3 35,7 36,1 23,3 16,9 10 5 24 13 SSW 1008,5 45 60 0,0
19.06.2019 12:00:00 29,3 13,9 35,3 33,3 22,6 16,9 9 5 20 11 SSE 1008,9 60 57 0,0
19.06.2019 11:00:00 28,3 15,7 33,2 30,8 22,1 16,9 9 5 17 9 SSE 1009,2 41 60 0,0
19.06.2019 10:00:00 25,3 15,8 29,2 26,9 21,9 16,9 7 4 14 8 SE 1009,6 36 60 0,0
19.06.2019 09:00:00 23,1 15,2 25,4 24,1 21,8 16,8 6 4 14 7 SE 1010,1 28 60 0,0
19.06.2019 08:00:00 21,7 14,8 23,1 21,4 22,0 16,8 6 3 13 7 SSE 1010,4 33 36 0,0
19.06.2019 07:00:00 19,7 14,6 19,0 19,6 22,3 16,8 6 4 12 7 SE 1010,7 32 23 0,0
19.06.2019 06:00:00 18,6 14,1 16,5 18,7 22,7 16,8 4 2 9 5 E 1010,9 30 3 0,0
19.06.2019 05:00:00 17,9 13,9 14,3 18,8 23,1 16,8 4 2 8 5 ESE 1011,2 35 0 0,0
19.06.2019 04:00:00 18,0 13,7 14,4 19,4 23,5 16,8 4 2 8 4 ESE 1011,6 38 0 0,0
19.06.2019 03:00:00 18,8 13,3 15,1 20,2 24,0 16,8 4 2 5 3 E 1011,7 47 0 0,0
19.06.2019 02:00:00 19,4 13,2 15,5 20,9 24,5 16,8 4 2 5 3 SE 1012,2 54 0 0,0
19.06.2019 01:00:00 20,0 13,2 16,1 21,9 24,9 16,8 4 2 8 4 ESE 1012,4 59 0 0,0
19.06.2019 00:00:00 21,3 13,5 17,5 23,1 25,4 16,8 3 1 8 4 SE 1012,7 65 0 0,0
18.06.2019 23:00:00 22,7 13,0 18,5 24,2 25,8 16,8 4 2 11 6 SE 1012,7 70 0 0,0
18.06.2019 22:00:00 24,9 11,6 20,9 25,8 26,2 16,8 5 3 14 8 SE 1012,7 70 0 0,0
18.06.2019 21:00:00 26,7 12,2 22,7 28,2 26,4 16,8 4 2 9 5 SE 1012,5 70 38 0,0
18.06.2019 20:00:00 29,0 11,6 29,8 30,9 26,3 16,8 4 2 10 5 SE 1012,5 70 60 0,0
18.06.2019 19:00:00 29,2 10,7 30,8 33,0 26,1 16,8 6 4 16 9 SSW 1012,8 64 60 0,0
18.06.2019 18:00:00 29,4 9,5 33,2 34,4 25,7 16,8 7 4 18 10 SSE 1013,1 54 57 0,0
18.06.2019 17:00:00 28,7 9,6 30,3 34,5 25,2 16,8 9 5 21 12 S 1013,9 70 41 0,0
18.06.2019 16:00:00 30,0 10,5 35,4 36,6 24,5 16,8 11 6 26 14 S 1014,2 61 57 0,0
18.06.2019 15:00:00 28,0 10,1 29,3 35,5 23,8 16,8 9 5 24 13 SSE 1014,9 70 48 0,0
18.06.2019 14:00:00 29,0 10,4 33,8 35,2 23,0 16,8 13 7 26 14 SSE 1015,4 50 57 0,0
18.06.2019 13:00:00 27,9 11,7 33,2 33,5 22,2 16,8 14 7 30 16 SSE 1016,2 48 54 0,0
18.06.2019 12:00:00 27,2 12,6 32,9 31,5 21,5 16,8 11 6 25 14 SE 1016,5 43 60 0,0
18.06.2019 11:00:00 26,6 12,7 30,5 29,0 21,0 16,8 10 5 23 12 ESE 1016,9 50 60 0,0
18.06.2019 10:00:00 24,8 14,2 28,8 26,4 20,6 16,8 8 5 16 9 SE 1017,4 40 60 0,0
18.06.2019 09:00:00 22,5 14,1 25,0 23,1 20,5 16,8 9 5 17 9 SSE 1017,9 20 60 0,0
18.06.2019 08:00:00 20,5 13,2 21,4 20,1 20,7 16,8 8 4 14 7 SE 1018,0 22 60 0,0
18.06.2019 07:00:00 18,7 12,8 18,5 17,9 21,0 16,8 6 3 9 5 SE 1018,1 19 60 0,0
18.06.2019 06:00:00 16,9 12,7 14,6 16,7 21,4 16,8 4 2 9 5 ESE 1018,3 21 19 0,0
18.06.2019 05:00:00 16,2 12,9 12,7 16,9 21,8 16,8 5 3 8 4 E 1018,4 21 0 0,0
18.06.2019 04:00:00 16,8 12,8 13,0 17,6 22,2 16,8 4 2 8 5 ESE 1018,5 25 0 0,0
18.06.2019 03:00:00 16,5 13,3 13,2 18,3 22,7 16,8 4 2 9 5 ESE 1018,8 27 0 0,0
18.06.2019 02:00:00 16,9 13,2 13,4 19,1 23,2 16,8 3 1 6 3 ENE 1019,1 31 0 0,0
18.06.2019 01:00:00 17,7 13,5 14,2 20,1 23,7 16,8 3 2 7 4 ESE 1019,3 31 0 0,0
18.06.2019 00:00:00 18,5 13,8 14,9 21,2 24,2 16,8 3 2 6 4 E 1019,0 34 0 0,0
17.06.2019 23:00:00 20,2 13,8 16,3 22,6 24,6 16,8 3 2 8 5 E 1018,9 42 0 0,0
17.06.2019 22:00:00 22,3 13,3 18,0 24,4 24,9 16,8 4 2 8 4 SE 1018,8 54 7 0,0
17.06.2019 21:00:00 24,9 11,7 22,6 26,6 25,1 16,8 6 3 13 7 ESE 1018,6 68 60 0,0
17.06.2019 20:00:00 26,4 10,7 27,9 29,3 25,1 16,8 6 3 16 9 E 1018,8 68 60 0,0
17.06.2019 19:00:00 26,6 10,5 29,1 31,7 24,8 16,8 11 6 19 10 E 1019,1 70 60 0,0
17.06.2019 18:00:00 26,7 9,7 30,7 32,8 24,4 16,8 6 4 16 9 ENE 1019,5 70 47 0,0
17.06.2019 17:00:00 27,0 10,4 33,7 34,4 23,8 16,8 6 3 17 9 NNE 1020,0 55 53 0,0
17.06.2019 16:00:00 27,2 11,3 32,9 33,9 23,1 16,8 5 3 11 6 NNE 1020,4 70 43 0,0
17.06.2019 15:00:00 25,7 11,1 33,0 34,6 22,3 16,8 5 3 18 10 NW 1020,9 44 48 0,0
17.06.2019 14:00:00 25,5 12,7 33,1 34,1 21,5 16,8 5 3 11 6 SW 1021,2 41 55 0,0
17.06.2019 13:00:00 23,6 12,0 30,0 32,9 20,6 16,8 7 4 13 7 NNE 1021,8 44 55 0,0
17.06.2019 12:00:00 23,9 12,1 32,4 30,7 19,8 16,8 3 2 12 7 E 1022,1 50 48 0,0
17.06.2019 11:00:00 22,9 13,9 28,5 28,3 19,2 16,8 4 2 10 5 SE 1022,4 31 60 0,0
17.06.2019 10:00:00 21,1 14,2 24,7 25,0 18,7 16,8 5 3 9 5 SSW 1022,7 30 60 0,0
17.06.2019 09:00:00 20,2 14,2 21,3 23,2 18,5 16,8 2 1 6 4 SSE 1022,9 21 60 0,0
17.06.2019 08:00:00 18,2 13,8 18,0 19,5 18,5 16,8 3 2 7 4 WNW 1022,9 21 60 0,0
17.06.2019 07:00:00 15,7 14,4 15,6 16,0 18,7 16,8 3 2 5 3 SW 1022,8 9 56 0,0
17.06.2019 06:00:00 13,9 13,3 12,2 14,0 19,0 16,8 5 3 6 3 S 1022,7 5 6 0,0
17.06.2019 05:00:00 13,4 12,8 11,2 14,2 19,3 16,8 2 1 5 3 W 1022,1 4,4 0 0,0
17.06.2019 04:00:00 13,7 13,0 11,8 14,8 19,6 16,8 2 1 4 2 W 1022,3 5 0 0,0
17.06.2019 03:00:00 15,0 14,1 12,8 15,8 19,9 16,8 0 0 6 3 N 1022,2 10 0 0,0
17.06.2019 02:00:00 15,8 14,8 14,5 16,8 20,1 16,8 1 1 5 3 SE 1022,1 11 0 0,0
17.06.2019 01:00:00 16,0 14,6 14,9 17,3 20,4 16,8 3 1 10 5 W 1021,7 16 0 0,0
17.06.2019 00:00:00 16,6 15,2 15,5 17,8 20,6 16,8 4 2 11 6 SSW 1021,8 14 0 0,0
16.06.2019 23:00:00 16,8 15,5 15,9 18,3 20,9 16,8 6 3 9 5 S 1021,7 11 0 0,0
16.06.2019 22:00:00 16,6 15,2 15,9 18,9 21,1 16,8 3 1 6 4 NNW 1021,4 6 0 0,2
16.06.2019 21:00:00 17,0 14,8 15,9 19,6 21,3 16,8 4 2 15 8 W 1021,6 8 0 1,1
16.06.2019 20:00:00 20,0 12,2 19,4 21,4 21,3 16,8 4 2 6 3 NNW 1021,1 62 0 0,0
16.06.2019 19:00:00 20,4 10,8 20,5 22,5 21,3 16,8 3 2 5 3 NW 1021,0 70 0 0,0
16.06.2019 18:00:00 20,5 11,8 21,1 23,4 21,2 16,8 4 2 8 5 S 1020,9 59 0 0,0
16.06.2019 17:00:00 19,9 14,0 20,1 22,6 21,1 16,8 5 3 11 6 SSW 1021,3 33 0 0,0
16.06.2019 16:00:00 20,0 13,5 20,4 22,8 21,0 16,8 7 4 13 7 SW 1021,3 39 0 0,0
16.06.2019 15:00:00 20,6 12,9 21,8 24,8 20,6 16,8 8 5 15 8 SSW 1021,2 52 0 0,0
16.06.2019 14:00:00 20,0 13,2 22,3 25,3 20,3 16,8 6 4 16 9 SW 1021,0 36 0 0,0
16.06.2019 13:00:00 19,7 12,5 21,7 24,2 20,1 16,8 5 3 10 6 SSW 1020,9 59 0 0,0
16.06.2019 12:00:00 19,0 13,0 20,4 22,6 19,9 16,8 5 3 11 6 SSW 1020,7 64 0 0,0
16.06.2019 11:00:00 18,7 13,1 19,6 20,7 19,7 16,8 5 3 11 6 W 1020,2 69 0 0,0
16.06.2019 10:00:00 18,3 12,7 19,2 21,7 19,5 16,7 5 3 12 7 W 1020,0 70 8 0,0
16.06.2019 09:00:00 17,2 12,1 17,9 20,0 19,4 16,7 5 3 13 7 SW 1020,0 70 31 0,0
16.06.2019 08:00:00 16,5 12,3 17,4 18,6 19,5 16,7 5 3 10 6 WNW 1019,3 48 53 0,0
16.06.2019 07:00:00 16,4 12,4 16,0 17,0 19,7 16,7 3 2 9 5 NNE 1018,6 61 52 0,0
16.06.2019 06:00:00 13,9 12,3 12,6 14,5 20,1 16,7 0 0 6 3 N 1018,2 41 0 0,0
16.06.2019 05:00:00 13,5 11,9 11,9 14,2 20,5 16,7 3 2 10 6 NW 1017,7 38 0 0,0
16.06.2019 04:00:00 14,1 12,2 11,9 14,8 21,0 16,7 3 2 13 7 NW 1017,7 50 0 0,0
16.06.2019 03:00:00 14,7 12,5 12,7 15,5 21,4 16,7 6 3 10 5 WNW 1017,6 67 0 0,0
16.06.2019 02:00:00 15,6 12,7 13,7 16,2 21,9 16,7 5 3 11 6 NNW 1017,2 70 0 0,0
16.06.2019 01:00:00 15,9 13,3 13,1 16,9 22,4 16,7 5 3 9 5 W 1016,7 70 0 0,0
16.06.2019 00:00:00 16,9 13,2 13,9 17,8 22,9 16,7 4 2 10 5 WNW 1016,3 70 0 0,0
15.06.2019 23:00:00 18,3 13,7 16,1 18,9 23,4 16,7 3 2 13 7 NNW 1015,5 70 0 0,0
15.06.2019 22:00:00 19,9 14,2 18,1 20,2 23,8 16,7 6 3 22 12 WNW 1014,9 70 3 0,0
15.06.2019 21:00:00 21,5 14,8 20,4 21,8 24,1 16,7 8 4 27 15 W 1013,9 70 41 0,0
15.06.2019 20:00:00 23,3 14,8 23,6 24,3 24,3 16,7 12 7 33 18 W 1013,1 57 46 0,0
15.06.2019 19:00:00 24,6 15,1 25,3 26,4 24,3 16,7 11 6 28 15 WNW 1012,5 52 55 0,0
15.06.2019 18:00:00 25,4 15,3 27,2 28,1 24,2 16,7 13 7 32 17 WNW 1011,8 35 60 0,0
15.06.2019 17:00:00 26,4 15,8 29,0 28,5 24,0 16,7 16 9 43 23 W 1011,7 32 45 0,0
15.06.2019 16:00:00 26,0 15,5 27,6 29,4 23,7 16,7 21 12 43 23 W 1011,2 16 56 0,0
15.06.2019 15:00:00 26,3 16,9 27,7 30,4 23,3 16,7 18 10 42 23 W 1010,6 50 35 0,0
15.06.2019 14:00:00 27,8 18,4 28,0 31,3 22,7 16,7 14 8 34 18 W 1009,3 25 48 0,0
15.06.2019 13:00:00 28,8 17,7 31,2 32,3 22,0 16,7 11 6 25 14 SW 1008,2 30 58 0,0
15.06.2019 12:00:00 28,1 19,1 30,5 30,6 21,3 16,7 16 9 31 17 S 1008,0 16 60 0,0
15.06.2019 11:00:00 27,2 19,5 29,0 29,1 20,9 16,7 12 6 26 14 SSE 1007,8 16 57 0,0
15.06.2019 10:00:00 24,8 19,2 24,9 24,0 20,7 16,7 7 4 16 9 SSE 1007,7 13 1 0,0
15.06.2019 09:00:00 24,0 18,4 23,8 23,1 20,5 16,7 12 7 27 15 ESE 1007,9 14 17 0,0
15.06.2019 08:00:00 23,1 17,6 23,0 21,6 20,6 16,7 8 5 19 10 ESE 1007,8 14 14 0,0
15.06.2019 07:00:00 21,9 16,8 20,9 19,2 20,7 16,7 10 6 24 13 E 1008,0 16 0 0,0
15.06.2019 06:00:00 21,5 16,2 20,2 18,5 21,0 16,7 8 5 19 10 ENE 1008,8 19 0 0,0
15.06.2019 05:00:00 21,4 15,8 19,8 18,5 21,2 16,7 10 5 19 11 E 1009,0 23 0 0,0
15.06.2019 04:00:00 21,8 15,4 20,2 18,8 21,5 16,7 8 5 19 10 ENE 1009,8 26 0 0,1
15.06.2019 03:00:00 22,8 13,7 20,7 18,9 21,8 16,7 7 4 17 9 ENE 1011,6 28 0 0,0
15.06.2019 02:00:00 22,5 12,8 19,4 19,4 22,0 16,7 7 4 18 10 NE 1012,5 41 0 0,0
15.06.2019 01:00:00 21,5 14,4 18,9 20,2 22,3 16,7 6 3 10 6 NNE 1013,3 39 0 0,0
15.06.2019 00:00:00 23,5 13,8 20,6 20,9 22,6 16,7 5 3 13 7 ENE 1014,2 57 0 0,0
14.06.2019 23:00:00 23,2 15,0 20,7 21,5 22,8 16,7 3 2 8 4 S 1014,5 53 0 0,0
14.06.2019 22:00:00 24,1 14,0 21,7 22,1 23,0 16,7 3 2 18 10 S 1014,7 65 0 0,0
14.06.2019 21:00:00 25,8 12,5 23,5 22,9 23,2 16,7 4 2 14 7 SE 1014,5 70 0 0,0
14.06.2019 20:00:00 27,3 10,4 25,8 23,8 23,3 16,7 6 4 23 12 ESE 1014,4 70 0 0,0
14.06.2019 19:00:00 28,4 9,8 27,9 26,1 23,3 16,7 10 5 23 13 ESE 1014,7 70 35 0,0
14.06.2019 18:00:00 28,7 9,9 29,2 26,5 23,3 16,7 10 5 22 12 E 1014,8 70 4 0,0
14.06.2019 17:00:00 28,2 9,0 27,7 26,4 23,2 16,7 10 5 24 13 SE 1015,5 70 0 0,0
14.06.2019 16:00:00 27,9 8,4 27,4 27,2 22,9 16,7 9 5 33 18 SSE 1016,0 70 8 0,0
14.06.2019 15:00:00 28,9 6,2 29,2 29,5 22,4 16,7 15 8 34 18 SE 1016,4 33 50 0,0
14.06.2019 14:00:00 28,9 9,4 31,5 30,9 21,7 16,7 16 9 36 19 SSE 1016,6 33 60 0,0
14.06.2019 13:00:00 28,4 12,0 30,9 30,5 21,0 16,7 14 8 32 17 SSE 1017,0 25 60 0,0
14.06.2019 12:00:00 26,7 12,9 28,7 29,7 20,3 16,7 13 7 30 16 SSE 1017,6 29 60 0,0
14.06.2019 11:00:00 25,3 14,2 27,5 27,6 19,7 16,7 10 5 26 14 SE 1017,8 36 60 0,0
14.06.2019 10:00:00 22,6 13,6 24,3 24,9 19,3 16,7 11 6 22 12 SE 1018,2 61 60 0,0
14.06.2019 09:00:00 20,5 13,1 21,3 22,2 19,1 16,7 9 5 16 9 SE 1018,1 36 60 0,0
14.06.2019 08:00:00 17,3 13,0 16,9 18,7 19,2 16,7 5 3 14 7 S 1018,2 23 60 0,0
14.06.2019 07:00:00 16,5 13,1 14,8 15,6 19,6 16,7 3 2 8 4 SSE 1017,9 27 60 0,0
14.06.2019 06:00:00 12,5 11,7 10,9 13,8 20,0 16,7 3 2 6 3 SE 1017,9 18 20 0,0

tt = temperature
td = dewpoint
tt 5cm = temperature 5cm
tt -5cm = temperature -5cm
tt -20cm = temperature -20cm
tt -100cm = temperature -100cm
ff = wind speed
fx = gusts
dd = wind direction
ppp = reduced air pressure
vv = visibility
sd = sunshine duration
rr = precipitation

Next stations